Location: Sagn�
(15.2046°N, 12.7898°W)
Time: 14:01:55
(UTC+00:00)

Meteor 1-4 Rocket - Pass Details

Date: 08 May 2021
Orbit: 447 x 499 km, 81.2° (Epoch: 14 June)

Event Time Altitude Azimuth Distance (km) Brightness Sun altitude
Rises 19:25:08 0° 191° (S) 2,466 6.1 -4.1°
Reaches altitude 10° 19:27:12 10° 194° (SSW) 1,602 5.2 -4.6°
Maximum altitude 19:30:40 64° 276° (W) 519 3.0 -5.4°
Drops below altitude 10° 19:34:12 10° 358° (N) 1,634 5.5 -6.2°
Sets 19:36:20 0° 2° (N) 2,522 6.5 -6.7°
